SWA2007 KDEN-KPHX

Flight info

Callsign SWA2007
Flight time 1h 38m
Altitude 40000
Route SMMUR2 DAAYE GUP EAGUL6
Aircraft B738/M-SADE2E3GIJ4RWZ/LB1D1

Departure

Time 2026-05-08 01:21
Airport Denver International Airport (KDEN)

Arrival

Time 2026-05-08 02:59
Airport Phoenix Sky Harbor International Airport (KPHX)
Time Latitude Longitude Altitude Speed Heading
2026-05-08 00:51 39.86252 -104.67631 5443 ft 0 kts 10°
2026-05-08 01:05 39.86248 -104.67632 5443 ft 2 kts 11°
2026-05-08 01:05 39.86233 -104.67635 5443 ft 2 kts 10°
2026-05-08 01:06 39.86218 -104.67639 5443 ft 1 kts 11°
2026-05-08 01:06 39.86208 -104.67641 5443 ft 2 kts 347°
2026-05-08 01:06 39.86196 -104.67631 5443 ft 2 kts 301°
2026-05-08 01:06 39.86192 -104.67619 5443 ft 0 kts 273°
2026-05-08 01:07 39.86193 -104.67609 5443 ft 0 kts 269°
2026-05-08 01:11 39.86193 -104.67610 5443 ft 1 kts 269°
2026-05-08 01:12 39.86193 -104.67622 5443 ft 2 kts 269°
2026-05-08 01:12 39.86193 -104.67645 5443 ft 2 kts 269°
2026-05-08 01:12 39.86193 -104.67667 5443 ft 2 kts 271°
2026-05-08 01:12 39.86194 -104.67692 5443 ft 3 kts 270°
2026-05-08 01:13 39.86193 -104.67725 5443 ft 4 kts 265°
2026-05-08 01:13 39.86172 -104.67772 5443 ft 8 kts 213°
2026-05-08 01:13 39.86135 -104.67851 5443 ft 13 kts 268°
2026-05-08 01:13 39.86136 -104.67989 5443 ft 16 kts 270°
2026-05-08 01:14 39.86136 -104.68153 5443 ft 18 kts 272°
2026-05-08 01:14 39.86138 -104.68300 5443 ft 13 kts 269°
2026-05-08 01:14 39.86114 -104.68385 5443 ft 8 kts 206°
2026-05-08 01:14 39.86055 -104.68402 5443 ft 8 kts 204°
2026-05-08 01:15 39.86031 -104.68475 5443 ft 6 kts 266°
2026-05-08 01:15 39.86029 -104.68488 5443 ft 0 kts 253°
2026-05-08 01:15 39.86020 -104.68498 5443 ft 5 kts 213°
2026-05-08 01:15 39.85947 -104.68510 5443 ft 16 kts 180°
2026-05-08 01:16 39.85821 -104.68510 5443 ft 19 kts 180°
2026-05-08 01:16 39.85687 -104.68512 5443 ft 19 kts 180°
2026-05-08 01:16 39.85553 -104.68514 5443 ft 18 kts 180°
2026-05-08 01:16 39.85428 -104.68516 5443 ft 16 kts 180°
2026-05-08 01:17 39.85316 -104.68517 5443 ft 15 kts 180°
2026-05-08 01:17 39.85217 -104.68541 5443 ft 12 kts 226°
2026-05-08 01:17 39.85205 -104.68648 5443 ft 12 kts 267°
2026-05-08 01:17 39.85202 -104.68765 5443 ft 13 kts 269°
2026-05-08 01:18 39.85199 -104.68893 5443 ft 14 kts 268°
2026-05-08 01:18 39.85196 -104.69035 5443 ft 17 kts 269°
2026-05-08 01:18 39.85197 -104.69196 5443 ft 18 kts 271°
2026-05-08 01:18 39.85199 -104.69359 5443 ft 16 kts 270°
2026-05-08 01:19 39.85200 -104.69458 5443 ft 4 kts 270°
2026-05-08 01:19 39.85200 -104.69494 5443 ft 3 kts 270°
2026-05-08 01:19 39.85201 -104.69524 5443 ft 3 kts 270°
2026-05-08 01:19 39.85202 -104.69566 5443 ft 6 kts 275°
2026-05-08 01:20 39.85220 -104.69630 5443 ft 9 kts 311°
2026-05-08 01:20 39.85304 -104.69660 5443 ft 18 kts 360°
2026-05-08 01:20 39.85638 -104.69656 5443 ft 77 kts
2026-05-08 01:20 39.86361 -104.69646 5443 ft 129 kts 359°
2026-05-08 01:21 39.87421 -104.69634 5465 ft 170 kts 359°
2026-05-08 01:21 39.88618 -104.69594 5872 ft 174 kts 358°
2026-05-08 01:21 39.89870 -104.69592 6080 ft 189 kts 356°
2026-05-08 01:21 39.91224 -104.69659 6451 ft 201 kts 355°
2026-05-08 01:22 39.92647 -104.69813 6864 ft 211 kts 347°
2026-05-08 01:22 39.93999 -104.70572 6927 ft 214 kts 319°
2026-05-08 01:22 39.94797 -104.72168 7135 ft 216 kts 286°
2026-05-08 01:22 39.94774 -104.74143 7330 ft 222 kts 256°
2026-05-08 01:23 39.94244 -104.76035 7529 ft 224 kts 252°
2026-05-08 01:23 39.93718 -104.77927 7757 ft 224 kts 253°
2026-05-08 01:23 39.93187 -104.79840 8034 ft 225 kts 253°
2026-05-08 01:23 39.92647 -104.81764 8309 ft 226 kts 253°
2026-05-08 01:24 39.92103 -104.83694 8584 ft 227 kts 253°
2026-05-08 01:24 39.91551 -104.85638 8844 ft 234 kts 253°
2026-05-08 01:24 39.90981 -104.87638 9094 ft 240 kts 253°
2026-05-08 01:24 39.90400 -104.89679 9380 ft 241 kts 253°
2026-05-08 01:25 39.89602 -104.91604 9658 ft 247 kts 232°
2026-05-08 01:25 39.88195 -104.92924 9941 ft 256 kts 203°
2026-05-08 01:25 39.86445 -104.93374 10235 ft 261 kts 189°
2026-05-08 01:25 39.84623 -104.93629 10511 ft 263 kts 190°
2026-05-08 01:26 39.82824 -104.93900 10782 ft 264 kts 190°
2026-05-08 01:26 39.81006 -104.94170 11056 ft 266 kts 190°
2026-05-08 01:26 39.79163 -104.94444 11331 ft 268 kts 190°
2026-05-08 01:26 39.77313 -104.94718 11605 ft 269 kts 190°
2026-05-08 01:27 39.75445 -104.94990 11881 ft 271 kts 190°
2026-05-08 01:27 39.73573 -104.95256 12156 ft 272 kts 190°
2026-05-08 01:27 39.71690 -104.95521 12431 ft 273 kts 190°
2026-05-08 01:27 39.69803 -104.95785 12707 ft 274 kts 190°
2026-05-08 01:28 39.67913 -104.96049 12981 ft 275 kts 190°
2026-05-08 01:28 39.66033 -104.96311 13254 ft 276 kts 190°
2026-05-08 01:28 39.64083 -104.96586 13540 ft 289 kts 190°
2026-05-08 01:28 39.62045 -104.96880 13815 ft 302 kts 190°
2026-05-08 01:29 39.59925 -104.97191 14199 ft 310 kts 190°
2026-05-08 01:29 39.57778 -104.97508 14594 ft 317 kts 190°
2026-05-08 01:29 39.55546 -104.97839 14996 ft 324 kts 190°
2026-05-08 01:29 39.53289 -104.98176 15396 ft 330 kts 190°
2026-05-08 01:30 39.51021 -104.98516 15792 ft 335 kts 190°
2026-05-08 01:30 39.48696 -104.98865 16191 ft 338 kts 190°
2026-05-08 01:30 39.46364 -104.99216 16590 ft 340 kts 190°
2026-05-08 01:30 39.44002 -104.99571 16992 ft 342 kts 190°
2026-05-08 01:31 39.41682 -104.99918 17385 ft 344 kts 190°
2026-05-08 01:31 39.39278 -105.00279 17790 ft 346 kts 190°
2026-05-08 01:31 39.36897 -105.00635 18189 ft 348 kts 190°
2026-05-08 01:31 39.34475 -105.00997 18592 ft 350 kts 190°
2026-05-08 01:32 39.32074 -105.01357 18990 ft 352 kts 190°
2026-05-08 01:32 39.29653 -105.01720 19388 ft 353 kts 190°
2026-05-08 01:32 39.27175 -105.02093 19794 ft 355 kts 190°
2026-05-08 01:32 39.24729 -105.02460 20193 ft 356 kts 190°
2026-05-08 01:33 39.22311 -105.02822 20587 ft 356 kts 190°
2026-05-08 01:33 39.19850 -105.03191 20987 ft 357 kts 190°
2026-05-08 01:33 39.17397 -105.03558 21386 ft 357 kts 190°
2026-05-08 01:33 39.14929 -105.03927 21788 ft 356 kts 190°
2026-05-08 01:34 39.12485 -105.04291 22186 ft 356 kts 190°
2026-05-08 01:34 39.10030 -105.04657 22587 ft 355 kts 190°
2026-05-08 01:34 39.07604 -105.05019 22984 ft 354 kts 190°
2026-05-08 01:34 39.05165 -105.05383 23385 ft 353 kts 190°
2026-05-08 01:35 39.02748 -105.05743 23784 ft 351 kts 190°
2026-05-08 01:35 39.00344 -105.06097 24183 ft 349 kts 190°
2026-05-08 01:35 38.97969 -105.06435 24579 ft 347 kts 190°
2026-05-08 01:35 38.95578 -105.06765 24980 ft 345 kts 190°
2026-05-08 01:36 38.93206 -105.07079 25381 ft 342 kts 190°
2026-05-08 01:36 38.90861 -105.07377 25779 ft 339 kts 190°
2026-05-08 01:36 38.88517 -105.07658 26182 ft 336 kts 190°
2026-05-08 01:36 38.86221 -105.07916 26579 ft 332 kts 190°
2026-05-08 01:37 38.83929 -105.08162 26980 ft 328 kts 190°
2026-05-08 01:37 38.81698 -105.08390 27376 ft 323 kts 190°
2026-05-08 01:37 38.79454 -105.08611 27780 ft 318 kts 190°
2026-05-08 01:37 38.77293 -105.08815 28176 ft 312 kts 190°
2026-05-08 01:38 38.75148 -105.09010 28540 ft 311 kts 190°
2026-05-08 01:38 38.72949 -105.09215 28613 ft 325 kts 190°
2026-05-08 01:38 38.70638 -105.09440 28674 ft 339 kts 190°
2026-05-08 01:38 38.68268 -105.09682 28725 ft 353 kts 190°
2026-05-08 01:39 38.65764 -105.09952 28816 ft 366 kts 190°
2026-05-08 01:39 38.63220 -105.10228 29174 ft 369 kts 191°
2026-05-08 01:39 38.60738 -105.10841 29473 ft 365 kts 207°
2026-05-08 01:39 38.58664 -105.12565 29894 ft 348 kts 234°
2026-05-08 01:40 38.57389 -105.15051 30524 ft 332 kts 248°
2026-05-08 01:40 38.56359 -105.17661 30887 ft 335 kts 248°
2026-05-08 01:40 38.55255 -105.20292 31304 ft 335 kts 247°
2026-05-08 01:40 38.54154 -105.22871 31820 ft 332 kts 247°
2026-05-08 01:41 38.53070 -105.25441 32204 ft 332 kts 247°
2026-05-08 01:41 38.51985 -105.28017 32652 ft 330 kts 248°
2026-05-08 01:41 38.50889 -105.30607 33063 ft 329 kts 247°
2026-05-08 01:41 38.49799 -105.33158 33437 ft 328 kts 247°
2026-05-08 01:42 38.48715 -105.35688 33828 ft 327 kts 248°
2026-05-08 01:42 38.47630 -105.38238 34189 ft 326 kts 248°
2026-05-08 01:42 38.46544 -105.40776 34525 ft 326 kts 248°
2026-05-08 01:42 38.45477 -105.43269 34927 ft 322 kts 248°
2026-05-08 01:43 38.44408 -105.45758 35295 ft 321 kts 246°
2026-05-08 01:43 38.43088 -105.48114 35511 ft 331 kts 234°
2026-05-08 01:43 38.41499 -105.50236 35742 ft 334 kts 232°
2026-05-08 01:43 38.39822 -105.52306 35789 ft 345 kts 227°
2026-05-08 01:44 38.37845 -105.54164 35841 ft 359 kts 218°
2026-05-08 01:44 38.33399 -105.57410 35944 ft 376 kts 216°
2026-05-08 01:45 38.28725 -105.60616 36044 ft 392 kts 214°
2026-05-08 01:45 38.23785 -105.63778 36145 ft 407 kts 213°
2026-05-08 01:46 38.18640 -105.67019 36244 ft 420 kts 212°
2026-05-08 01:46 38.13415 -105.70299 36343 ft 433 kts 212°
2026-05-08 01:47 38.07945 -105.73709 36455 ft 445 kts 211°
2026-05-08 01:47 38.02418 -105.77363 36627 ft 445 kts 217°
2026-05-08 01:48 37.97786 -105.82221 37001 ft 427 kts 231°
2026-05-08 01:48 37.95724 -105.84905 37190 ft 429 kts 231°
2026-05-08 01:48 37.93638 -105.87579 37377 ft 431 kts 230°
2026-05-08 01:48 37.91535 -105.90231 37564 ft 433 kts 230°
2026-05-08 01:49 37.89392 -105.92934 37753 ft 434 kts 230°
2026-05-08 01:49 37.87255 -105.95634 37940 ft 434 kts 230°
2026-05-08 01:49 37.85152 -105.98299 38125 ft 435 kts 230°
2026-05-08 01:49 37.83004 -106.01022 38312 ft 433 kts 230°
2026-05-08 01:50 37.80880 -106.03707 38498 ft 430 kts 230°
2026-05-08 01:50 37.78786 -106.06359 38685 ft 429 kts 230°
2026-05-08 01:50 37.76686 -106.09027 38873 ft 429 kts 230°
2026-05-08 01:50 37.74587 -106.11697 39061 ft 430 kts 230°
2026-05-08 01:51 37.72486 -106.14364 39249 ft 430 kts 230°
2026-05-08 01:51 37.70379 -106.17024 39436 ft 430 kts 230°
2026-05-08 01:51 37.68259 -106.19694 39624 ft 431 kts 230°
2026-05-08 01:51 37.66152 -106.22357 39810 ft 428 kts 230°
2026-05-08 01:52 37.64102 -106.24973 39992 ft 422 kts 231°
2026-05-08 01:52 37.62044 -106.27601 40112 ft 417 kts 231°
2026-05-08 01:52 37.57987 -106.32755 40119 ft 414 kts 231°
2026-05-08 01:53 37.53892 -106.37937 40129 ft 422 kts 230°
2026-05-08 01:53 37.49711 -106.43162 40135 ft 431 kts 230°
2026-05-08 01:54 37.45415 -106.48532 40142 ft 438 kts 231°
2026-05-08 01:54 37.41103 -106.53962 40149 ft 439 kts 230°
2026-05-08 01:55 37.36825 -106.59301 40155 ft 434 kts 230°
2026-05-08 01:55 37.32569 -106.64607 40155 ft 430 kts 230°
2026-05-08 01:56 37.28337 -106.69894 40154 ft 427 kts 230°
2026-05-08 01:56 37.24171 -106.75081 40155 ft 424 kts 230°
2026-05-08 01:57 37.19986 -106.80297 40155 ft 421 kts 230°
2026-05-08 01:57 37.15850 -106.85404 40155 ft 419 kts 230°
2026-05-08 01:58 37.11722 -106.90500 40155 ft 416 kts 229°
2026-05-08 01:58 37.07612 -106.95575 40156 ft 414 kts 230°
2026-05-08 01:59 37.03545 -107.00589 40156 ft 410 kts 230°
2026-05-08 01:59 36.99493 -107.05579 40155 ft 407 kts 230°
2026-05-08 02:00 36.95495 -107.10516 40154 ft 403 kts 230°
2026-05-08 02:00 36.91531 -107.15398 40154 ft 399 kts 230°
2026-05-08 02:01 36.87577 -107.20206 40155 ft 396 kts 230°
2026-05-08 02:01 36.83701 -107.24930 40155 ft 392 kts 230°
2026-05-08 02:02 36.79816 -107.29661 40145 ft 389 kts 230°
2026-05-08 02:02 36.75978 -107.34380 40065 ft 388 kts 230°
2026-05-08 02:03 36.72147 -107.39090 39966 ft 388 kts 230°
2026-05-08 02:03 36.68290 -107.43795 39869 ft 391 kts 230°
2026-05-08 02:04 36.64401 -107.48492 39770 ft 390 kts 230°
2026-05-08 02:04 36.60493 -107.53207 39669 ft 390 kts 230°
2026-05-08 02:05 36.56642 -107.57904 39569 ft 389 kts 230°
2026-05-08 02:05 36.52775 -107.62590 39468 ft 389 kts 230°
2026-05-08 02:06 36.48867 -107.67265 39370 ft 390 kts 230°
2026-05-08 02:06 36.45017 -107.71929 39270 ft 390 kts 230°
2026-05-08 02:07 36.41119 -107.76639 39170 ft 391 kts 230°
2026-05-08 02:07 36.37235 -107.81333 39070 ft 392 kts 230°
2026-05-08 02:08 36.33335 -107.86036 38971 ft 394 kts 230°
2026-05-08 02:08 36.29396 -107.90746 38871 ft 395 kts 229°
2026-05-08 02:09 36.25450 -107.95431 38770 ft 395 kts 230°
2026-05-08 02:09 36.21530 -108.00100 38673 ft 397 kts 230°
2026-05-08 02:10 36.17519 -108.04928 38570 ft 398 kts 230°
2026-05-08 02:10 36.13546 -108.09667 38471 ft 400 kts 229°
2026-05-08 02:11 36.09505 -108.14436 38369 ft 400 kts 230°
2026-05-08 02:11 36.05524 -108.19196 38270 ft 401 kts 230°
2026-05-08 02:12 36.01503 -108.23972 38170 ft 402 kts 229°
2026-05-08 02:12 35.97471 -108.28722 38070 ft 402 kts 230°
2026-05-08 02:13 35.93477 -108.33482 37971 ft 402 kts 230°
2026-05-08 02:13 35.89437 -108.38258 37872 ft 404 kts 229°
2026-05-08 02:14 35.85387 -108.43012 37744 ft 404 kts 229°
2026-05-08 02:14 35.81340 -108.47781 37619 ft 405 kts 230°
2026-05-08 02:15 35.77295 -108.52562 37494 ft 405 kts 230°
2026-05-08 02:15 35.73203 -108.57372 37368 ft 407 kts 229°
2026-05-08 02:16 35.69112 -108.62137 37242 ft 407 kts 230°
2026-05-08 02:16 35.65023 -108.66944 37117 ft 408 kts 229°
2026-05-08 02:17 35.60959 -108.71732 36994 ft 410 kts 229°
2026-05-08 02:17 35.56820 -108.76567 36868 ft 411 kts 229°
2026-05-08 02:18 35.52677 -108.81409 36744 ft 413 kts 229°
2026-05-08 02:18 35.48531 -108.86204 36620 ft 415 kts 229°
2026-05-08 02:19 35.44491 -108.91201 36493 ft 413 kts 232°
2026-05-08 02:19 35.40566 -108.96398 36368 ft 414 kts 232°
2026-05-08 02:20 35.36620 -109.01511 36241 ft 414 kts 231°
2026-05-08 02:20 35.32664 -109.06600 36117 ft 415 kts 231°
2026-05-08 02:21 35.28701 -109.11723 35992 ft 416 kts 231°
2026-05-08 02:21 35.24724 -109.16873 35866 ft 417 kts 230°
2026-05-08 02:22 35.20733 -109.21977 35741 ft 417 kts 230°
2026-05-08 02:22 35.16777 -109.27065 35617 ft 416 kts 230°
2026-05-08 02:23 35.12777 -109.32214 35492 ft 417 kts 230°
2026-05-08 02:23 35.08810 -109.37275 35368 ft 417 kts 230°
2026-05-08 02:24 35.04800 -109.42429 35243 ft 418 kts 230°
2026-05-08 02:24 35.00805 -109.47538 35120 ft 416 kts 230°
2026-05-08 02:25 34.96843 -109.52562 34995 ft 410 kts 230°
2026-05-08 02:25 34.92912 -109.57580 34872 ft 405 kts 231°
2026-05-08 02:26 34.89084 -109.62463 34746 ft 397 kts 231°
2026-05-08 02:26 34.85268 -109.67279 34618 ft 394 kts 230°
2026-05-08 02:27 34.81490 -109.72063 34495 ft 394 kts 230°
2026-05-08 02:27 34.77707 -109.76878 34370 ft 395 kts 230°
2026-05-08 02:28 34.73992 -109.81596 34246 ft 394 kts 231°
2026-05-08 02:28 34.70623 -109.86712 34142 ft 387 kts 241°
2026-05-08 02:29 34.68313 -109.92554 34044 ft 384 kts 247°
2026-05-08 02:29 34.66077 -109.98465 33918 ft 385 kts 246°
2026-05-08 02:30 34.63856 -110.04349 33794 ft 385 kts 246°
2026-05-08 02:30 34.61649 -110.10262 33669 ft 386 kts 247°
2026-05-08 02:31 34.59423 -110.16190 33544 ft 386 kts 246°
2026-05-08 02:31 34.57206 -110.22074 33419 ft 386 kts 246°
2026-05-08 02:32 34.54955 -110.28038 33293 ft 387 kts 246°
2026-05-08 02:32 34.52741 -110.33943 33169 ft 388 kts 246°
2026-05-08 02:33 34.50507 -110.39874 33154 ft 380 kts 246°
2026-05-08 02:33 34.48336 -110.45552 33150 ft 370 kts 246°
2026-05-08 02:34 34.46205 -110.51219 33090 ft 372 kts 246°
2026-05-08 02:34 34.45130 -110.54077 32816 ft 368 kts 246°
2026-05-08 02:34 34.44069 -110.56865 32437 ft 363 kts 246°
2026-05-08 02:35 34.43025 -110.59598 31943 ft 362 kts 245°
2026-05-08 02:35 34.41973 -110.62363 31442 ft 360 kts 245°
2026-05-08 02:35 34.40929 -110.65118 30861 ft 359 kts 245°
2026-05-08 02:35 34.39892 -110.67861 30258 ft 358 kts 244°
2026-05-08 02:36 34.38862 -110.70582 29658 ft 356 kts 244°
2026-05-08 02:36 34.37833 -110.73282 29058 ft 353 kts 244°
2026-05-08 02:36 34.36801 -110.75973 28455 ft 351 kts 243°
2026-05-08 02:36 34.35666 -110.78573 27835 ft 350 kts 238°
2026-05-08 02:37 34.34250 -110.80951 27081 ft 351 kts 230°
2026-05-08 02:37 34.32608 -110.83095 26339 ft 351 kts 227°
2026-05-08 02:37 34.30928 -110.85253 25587 ft 353 kts 227°
2026-05-08 02:37 34.29270 -110.87440 24832 ft 352 kts 227°
2026-05-08 02:38 34.27619 -110.89604 24081 ft 352 kts 226°
2026-05-08 02:38 34.25973 -110.91743 23334 ft 351 kts 226°
2026-05-08 02:38 34.24325 -110.93878 22588 ft 351 kts 226°
2026-05-08 02:38 34.22651 -110.96047 21828 ft 351 kts 225°
2026-05-08 02:39 34.21006 -110.98174 21083 ft 351 kts 225°
2026-05-08 02:39 34.19310 -111.00364 20316 ft 351 kts 225°
2026-05-08 02:39 34.17649 -111.02507 19565 ft 351 kts 225°
2026-05-08 02:39 34.15998 -111.04635 18821 ft 352 kts 225°
2026-05-08 02:40 34.14321 -111.06794 18281 ft 345 kts 224°
2026-05-08 02:40 34.12714 -111.08866 18244 ft 327 kts 224°
2026-05-08 02:40 34.11183 -111.10834 18193 ft 325 kts 224°
2026-05-08 02:40 34.09620 -111.12839 18109 ft 329 kts 224°
2026-05-08 02:41 34.08070 -111.14831 18023 ft 330 kts 224°
2026-05-08 02:41 34.06494 -111.16855 17934 ft 329 kts 224°
2026-05-08 02:41 34.04911 -111.18885 17846 ft 328 kts 224°
2026-05-08 02:41 34.03361 -111.20872 17759 ft 328 kts 224°
2026-05-08 02:42 34.01804 -111.22868 17672 ft 328 kts 224°
2026-05-08 02:42 34.00247 -111.24862 17585 ft 328 kts 224°
2026-05-08 02:42 33.98674 -111.26875 17497 ft 328 kts 224°
2026-05-08 02:42 33.97114 -111.28870 17410 ft 328 kts 224°
2026-05-08 02:43 33.95553 -111.30867 17322 ft 327 kts 224°
2026-05-08 02:43 33.94005 -111.32845 17250 ft 327 kts 224°
2026-05-08 02:43 33.92446 -111.34836 17247 ft 326 kts 224°
2026-05-08 02:43 33.90883 -111.36831 17238 ft 327 kts 224°
2026-05-08 02:44 33.89334 -111.38803 17215 ft 328 kts 224°
2026-05-08 02:44 33.87667 -111.40673 17191 ft 326 kts 217°
2026-05-08 02:44 33.85843 -111.42292 17163 ft 321 kts 213°
2026-05-08 02:44 33.84074 -111.43813 17141 ft 312 kts 214°
2026-05-08 02:45 33.82323 -111.45346 17118 ft 312 kts 214°
2026-05-08 02:45 33.80555 -111.46880 17052 ft 315 kts 214°
2026-05-08 02:45 33.78769 -111.48417 16787 ft 317 kts 214°
2026-05-08 02:45 33.76971 -111.49967 16400 ft 315 kts 214°
2026-05-08 02:46 33.75203 -111.51490 16023 ft 310 kts 214°
2026-05-08 02:46 33.73470 -111.52980 15648 ft 305 kts 214°
2026-05-08 02:46 33.71755 -111.54453 15175 ft 304 kts 214°
2026-05-08 02:46 33.70031 -111.55932 14505 ft 309 kts 214°
2026-05-08 02:47 33.68315 -111.57404 13911 ft 301 kts 214°
2026-05-08 02:47 33.66639 -111.58843 13509 ft 288 kts 214°
2026-05-08 02:47 33.65059 -111.60197 13112 ft 278 kts 214°
2026-05-08 02:47 33.63508 -111.61513 12658 ft 270 kts 214°
2026-05-08 02:48 33.61984 -111.62784 12234 ft 263 kts 214°
2026-05-08 02:48 33.60502 -111.64024 11794 ft 258 kts 214°
2026-05-08 02:48 33.59033 -111.65253 11268 ft 257 kts 214°
2026-05-08 02:48 33.57583 -111.66464 10706 ft 257 kts 214°
2026-05-08 02:49 33.56104 -111.67701 10126 ft 257 kts 214°
2026-05-08 02:49 33.54660 -111.68918 9559 ft 257 kts 214°
2026-05-08 02:49 33.53197 -111.70155 8980 ft 257 kts 214°
2026-05-08 02:49 33.51759 -111.71369 8410 ft 256 kts 214°
2026-05-08 02:50 33.50316 -111.72587 7836 ft 255 kts 214°
2026-05-08 02:50 33.48867 -111.73810 7257 ft 254 kts 214°
2026-05-08 02:50 33.47435 -111.75024 6682 ft 253 kts 217°
2026-05-08 02:50 33.46266 -111.76557 6098 ft 252 kts 239°
2026-05-08 02:51 33.45423 -111.78405 5529 ft 251 kts 240°
2026-05-08 02:51 33.44574 -111.80190 4957 ft 249 kts 240°
2026-05-08 02:51 33.43685 -111.81947 4377 ft 248 kts 230°
2026-05-08 02:51 33.42352 -111.83159 4032 ft 236 kts 200°
2026-05-08 02:52 33.40799 -111.83324 4022 ft 225 kts 168°
2026-05-08 02:52 33.39362 -111.82537 4021 ft 230 kts 146°
2026-05-08 02:52 33.38100 -111.81358 4014 ft 231 kts 143°
2026-05-08 02:52 33.36930 -111.80045 4011 ft 233 kts 127°
2026-05-08 02:53 33.36342 -111.78236 4020 ft 237 kts 95°
2026-05-08 02:53 33.36616 -111.76307 4021 ft 239 kts 63°
2026-05-08 02:53 33.37672 -111.74805 4028 ft 239 kts 36°
2026-05-08 02:53 33.39040 -111.73685 4013 ft 239 kts 30°
2026-05-08 02:54 33.40538 -111.72917 4018 ft 232 kts 13°
2026-05-08 02:54 33.42062 -111.72732 4026 ft 212 kts 347°
2026-05-08 02:54 33.43375 -111.73418 4023 ft 208 kts 322°
2026-05-08 02:54 33.44297 -111.74696 4008 ft 203 kts 292°
2026-05-08 02:55 33.44747 -111.76308 4008 ft 203 kts 282°
2026-05-08 02:55 33.44792 -111.79613 3847 ft 199 kts 263°
2026-05-08 02:55 33.44656 -111.81280 3839 ft 199 kts 263°
2026-05-08 02:56 33.44509 -111.82937 3842 ft 200 kts 262°
2026-05-08 02:56 33.44347 -111.84563 3650 ft 194 kts 261°
2026-05-08 02:56 33.44188 -111.86095 3320 ft 174 kts 264°
2026-05-08 02:56 33.44094 -111.87434 3096 ft 155 kts 266°
2026-05-08 02:57 33.44071 -111.88718 2915 ft 152 kts 268°
2026-05-08 02:57 33.44065 -111.89982 2686 ft 153 kts 269°
2026-05-08 02:57 33.44066 -111.91260 2473 ft 152 kts 269°
2026-05-08 02:57 33.44069 -111.92518 2266 ft 151 kts 269°
2026-05-08 02:58 33.44071 -111.93773 2061 ft 151 kts 269°
2026-05-08 02:58 33.44072 -111.95026 1854 ft 148 kts 270°
2026-05-08 02:58 33.44076 -111.96223 1662 ft 144 kts 269°
2026-05-08 02:58 33.44078 -111.97430 1471 ft 144 kts 270°
2026-05-08 02:59 33.44080 -111.98616 1279 ft 139 kts 270°
2026-05-08 02:59 33.44080 -111.99784 1141 ft 140 kts 270°
2026-05-08 02:59 33.44081 -112.00726 1131 ft 82 kts 270°
2026-05-08 02:59 33.44083 -112.01136 1128 ft 18 kts 269°
2026-05-08 03:00 33.44074 -112.01262 1128 ft 15 kts 253°
2026-05-08 03:00 33.44042 -112.01343 1128 ft 0 kts 230°
2026-05-08 03:00 33.44040 -112.01347 1128 ft 1 kts 230°
2026-05-08 03:00 33.44021 -112.01368 1127 ft 6 kts 219°
2026-05-08 03:01 33.43998 -112.01388 1127 ft 1 kts 216°
2026-05-08 03:01 33.43993 -112.01392 1127 ft 0 kts 216°
2026-05-08 03:01 33.43988 -112.01397 1127 ft 2 kts 217°
2026-05-08 03:01 33.43959 -112.01423 1126 ft 7 kts 215°
2026-05-08 03:02 33.43897 -112.01437 1126 ft 10 kts 173°
2026-05-08 03:02 33.43850 -112.01376 1127 ft 11 kts 97°
2026-05-08 03:02 33.43848 -112.01263 1128 ft 16 kts 90°
2026-05-08 03:02 33.43887 -112.01130 1128 ft 19 kts 64°
2026-05-08 03:03 33.43905 -112.00944 1128 ft 25 kts 90°
2026-05-08 03:03 33.43905 -112.00714 1131 ft 28 kts 90°
2026-05-08 03:03 33.43900 -112.00501 1131 ft 14 kts 114°
2026-05-08 03:03 33.43819 -112.00468 1131 ft 11 kts 181°
2026-05-08 03:04 33.43733 -112.00469 1130 ft 13 kts 181°
2026-05-08 03:04 33.43629 -112.00468 1128 ft 16 kts 180°
2026-05-08 03:04 33.43514 -112.00468 1128 ft 17 kts 180°
2026-05-08 03:04 33.43388 -112.00469 1128 ft 18 kts 181°
2026-05-08 03:05 33.43291 -112.00429 1127 ft 14 kts 103°
2026-05-08 03:05 33.43288 -112.00306 1127 ft 15 kts 90°
2026-05-08 03:05 33.43289 -112.00176 1127 ft 15 kts 89°
2026-05-08 03:05 33.43286 -112.00047 1127 ft 14 kts 88°
2026-05-08 03:06 33.43286 -111.99915 1125 ft 16 kts 93°
2026-05-08 03:06 33.43286 -111.99782 1125 ft 16 kts 90°
2026-05-08 03:06 33.43285 -111.99654 1125 ft 15 kts 91°
2026-05-08 03:06 33.43287 -111.99526 1125 ft 15 kts 88°
2026-05-08 03:07 33.43322 -111.99448 1125 ft 7 kts 17°
2026-05-08 03:07 33.43349 -111.99441 1125 ft 1 kts 13°
2026-05-08 03:07 33.43350 -111.99440 1125 ft 0 kts 13°